Weather History for KCDW - March, 2013

Change the Weather History Date:

Saturday, March 30, 2013

  Actual Average Record
Temperature  
Mean Temperature 44 °F -  
Max Temperature 59 °F 57 °F 87 °F (1998)
Min Temperature 30 °F 34 °F 12 °F (1970)
Degree Days  
Heating Degree Days 22    
Moisture  
Dew Point 22 °F    
Average Humidity 48    
Maximum Humidity 85    
Minimum Humidity 16    
Precipitation  
Precipitation 0.00 in - - ()
Sea Level Pressure  
Sea Level Pressure 30.15 in    
Wind  
Wind Speed 2 mph (WNW)    
Max Wind Speed 13 mph    
Max Gust Speed 22 mph    
Visibility 10 miles    
Events      
Averages and records for this station are not official NWS values.
T = Trace of Precipitation, MM = Missing Value Source: NWS Daily Summary

Daily Weather History Graph

Daily Weather History Graph

Search for Another Location

Airport or City:

Trip Planner

Search our weather history database for the weather conditions in past years. The results will help you decide how hot, cold, wet, or windy it might be!

Date:

Astronomy

Mar. 30, 2013 Rise Set
Actual Time 6:43 AM EDT 7:20 PM EDT
Civil Twilight 6:15 AM EDT 7:47 PM EDT
Nautical Twilight 5:43 AM EDT 8:20 PM EDT
Astronomical Twilight 5:09 AM EDT 8:54 PM EDT
Moon 11:25 PM EDT (3/30) 8:35 AM EDT (3/30)
Length of Visible Light 13h 31m
Length of Day
12h 36m
Waning Gibbous, 86% of the Moon is Illuminated
Mar 30
Waning Gibbous
Apr 3
Last Quarter
Apr 10
New
Apr 18
First Quarter
Apr 25
Full

Hourly Weather History & Observations

Time (EDT) Temp. Windchill Dew Point Humidity Pressure Visibility Wind Dir Wind Speed Gust Speed Precip Events Conditions
12:53 AM 34.0 °F - 26.1 °F 73% 30.17 in 10.0 mi Calm Calm - N/A   Clear
1:53 AM 33.1 °F - 26.1 °F 75% 30.17 in 10.0 mi Calm Calm - N/A   Clear
2:53 AM 33.1 °F - 27.0 °F 78% 30.16 in 10.0 mi Calm Calm - N/A   Clear
3:53 AM 32.0 °F 28.7 °F 27.0 °F 82% 30.16 in 10.0 mi South 3.5 mph - N/A   Clear
4:53 AM 30.9 °F - 26.1 °F 82% 30.16 in 10.0 mi Calm Calm - N/A   Clear
5:53 AM 30.0 °F - 26.1 °F 85% 30.17 in 10.0 mi Calm Calm - N/A   Clear
6:53 AM 30.0 °F - 26.1 °F 85% 30.18 in 10.0 mi Calm Calm - N/A   Clear
7:53 AM 34.0 °F - 28.0 °F 79% 30.19 in 10.0 mi Calm Calm - N/A   Clear
8:53 AM 42.1 °F - 28.0 °F 58% 30.20 in 10.0 mi Calm Calm - N/A   Clear
9:53 AM 46.0 °F - 28.0 °F 50% 30.20 in 10.0 mi Calm Calm - N/A   Clear
10:53 AM 50.0 °F - 24.1 °F 36% 30.19 in 10.0 mi Variable 4.6 mph 17.3 mph N/A   Clear
11:53 AM 53.1 °F - 21.9 °F 30% 30.17 in 10.0 mi Variable 6.9 mph - N/A   Partly Cloudy
12:53 PM 54.0 °F - 18.0 °F 24% 30.15 in 10.0 mi West 9.2 mph 16.1 mph N/A   Clear
1:53 PM 55.0 °F - 16.0 °F 22% 30.12 in 10.0 mi NW 12.7 mph 21.9 mph N/A   Partly Cloudy
2:53 PM 55.9 °F - 17.1 °F 22% 30.10 in 10.0 mi NW 9.2 mph - N/A   Scattered Clouds
3:53 PM 57.0 °F - 15.1 °F 19% 30.09 in 10.0 mi West 9.2 mph - N/A   Mostly Cloudy
4:53 PM 57.9 °F - 14.0 °F 18% 30.08 in 10.0 mi NW 5.8 mph - N/A   Mostly Cloudy
5:53 PM 57.9 °F - 12.0 °F 16% 30.09 in 10.0 mi WNW 5.8 mph - N/A   Clear
6:53 PM 55.9 °F - 12.0 °F 18% 30.10 in 10.0 mi NW 5.8 mph - N/A   Clear
7:53 PM 51.1 °F - 14.0 °F 23% 30.11 in 10.0 mi Calm Calm - N/A   Clear
8:53 PM 46.0 °F - 21.0 °F 37% 30.12 in 10.0 mi Calm Calm - N/A   Clear
9:53 PM 43.0 °F - 21.9 °F 43% 30.13 in 10.0 mi Calm Calm - N/A   Clear
10:53 PM 39.9 °F - 21.0 °F 47% 30.14 in 10.0 mi Calm Calm - N/A   Clear
11:53 PM 37.9 °F - 23.0 °F 55% 30.15 in 10.0 mi Calm Calm - N/A   Clear